Regional Weather Roundup
Issued by NWS

Home | Current Version | Previous Version | Text Only | Print | Product List | Glossary On
Versions: 1 2 3 4 5 6 7 8 9 10 11 12 13 14 15 16 17 18 19 20 21 22 23 24 25 26 27 28 29 30 31 32 33 34 35 36 37 38 39 40 41 42 43 44 45 46 47 48 49 50
000
ASUS43 KTOP 121408
RWRKS

WEATHER ROUNDUP FOR KANSAS
NATIONAL WEATHER SERVICE GOODLAND KS
800 AM CST TUE DEC 12 2017

NOTE:  "FAIR" INDICATES FEW OR NO CLOUDS BELOW 12,000 FEET WITH NO
SIGNIFICANT WEATHER AND/OR OBSTRUCTIONS TO VISIBILITY.

KSZ001>006-013>018-027>032-041>047-121500-
NORTHWEST KANSAS

CITY           SKY/WX    TMP DP  RH WIND       PRES   REMARKS
GOODLAND       CLOUDY    27  10  49 W12       30.32F WCI  17
HAYS           CLOUDY    19  16  88 W8        30.38F
HILL CITY      CLOUDY    23  19  85 W8        30.36F
RUSSELL        CLOUDY    18  17  96 SW6       30.36F
$$

KSZ061>065-074>080-084>089-121500-
SOUTHWEST KANSAS

CITY           SKY/WX    TMP DP  RH WIND       PRES   REMARKS
DODGE CITY     CLOUDY    19  13  77 SW5       30.39F
ELKHART        CLOUDY    30  15  53 W10       30.40S WCI  21
GARDEN CITY    CLOUDY    18  11  74 W9        30.38F
GREAT BEND     CLOUDY    21  18  88 W5        30.39F
LIBERAL        CLOUDY    20  12  71 W9        30.41F
PRATT          CLOUDY    24  19  82 W8        30.40S
$$

KSZ066>073-081>083-090>101-121500-
SOUTHEAST KANSAS

CITY           SKY/WX    TMP DP  RH WIND       PRES   REMARKS
CHANUTE        CLEAR     26  18  71 N7        30.37R
COFFEYVILLE    CLEAR     28  22  78 N9        30.39R
HUTCHINSON     CLOUDY    22  21  96 NW8       30.39S
MEDICINE LODGE   N/A     26  23  88 NW3       30.42R
NEWTON         CLOUDY    25  21  85 NW7       30.40R
PARSONS        CLEAR     26  21  81 NW6       30.39R
WICHITA INTL   CLOUDY    28  24  85 NW8       30.39S
WICHITA JABRA  CLOUDY    27  24  89 NW10      30.39R WCI  17
WICHITA MCCONL CLOUDY    29  23  77 NW9       30.39R
WINFIELD       CLOUDY    24  21  88 NW7       30.41R
$$

KSZ007>012-019>026-033>040-048>060-102>105-121500-
NORTHEAST KANSAS

CITY           SKY/WX    TMP DP  RH WIND       PRES   REMARKS
CONCORDIA      CLOUDY    29  25  85 W6        30.35F
EMPORIA        CLOUDY    22  18  85 NW5       30.37R
LAWRENCE       CLOUDY    17  13  84 W7        30.37F
MANHATTAN      CLOUDY    25  19  78 CALM      30.38F
MARYSVILLE     CLOUDY    19  18  93 NW3       30.35S
OLATHE IND     CLEAR     20  16  84 NW8       30.36R
OLATHE EXE     CLEAR     21  16  81 NW6       30.34R
SALINA         CLOUDY    28  25  88 SW5       30.39F
TOPEKA BILLARD CLOUDY    22  16  78 W6        30.38S
TOPEKA FORBES  CLOUDY    21  15  78 NW9       30.36S
$$




USA.gov is the U.S. government's official web portal to all federal, state and local government web resources and services.